Time,TemperatureF,DewpointF,PressureIn,WindDirection,WindDirectionDegrees,WindSpeedMPH,WindSpeedGustMPH,Humidity,HourlyPrecipIn,Conditions,Clouds,dailyrainin,SoftwareType,DateUTC
2013-02-23 00:00:00,30.4,25.0,30.27,NNW,339,0.0,0.0,80,0.00,,---,0.00,VWS V14.00,2013-02-23 05:00:00,
2013-02-23 00:05:00,30.6,25.2,30.26,NNW,339,0.0,0.0,80,0.00,,---,0.00,VWS V14.00,2013-02-23 05:05:00,
2013-02-23 00:10:00,30.6,25.2,30.26,NNW,339,0.0,0.0,80,0.00,,---,0.00,VWS V14.00,2013-02-23 05:10:00,
2013-02-23 00:15:00,30.6,25.2,30.26,NNW,339,0.0,0.0,80,0.00,,---,0.00,VWS V14.00,2013-02-23 05:15:00,
2013-02-23 00:20:00,30.4,25.0,30.25,NNW,339,0.0,0.0,80,0.00,,---,0.00,VWS V14.00,2013-02-23 05:20:00,
2013-02-23 00:25:00,30.4,25.3,30.25,NNW,339,0.0,0.0,81,0.00,,---,0.00,VWS V14.00,2013-02-23 05:25:00,
2013-02-23 00:30:00,30.3,24.9,30.25,NNW,339,0.0,0.0,80,0.00,,---,0.00,VWS V14.00,2013-02-23 05:30:00,
2013-02-23 00:35:00,30.3,24.9,30.26,NNW,339,0.0,0.0,80,0.00,,---,0.00,VWS V14.00,2013-02-23 05:35:00,
2013-02-23 00:40:00,30.3,24.9,30.26,NNW,339,0.0,0.0,80,0.00,,---,0.00,VWS V14.00,2013-02-23 05:40:00,
2013-02-23 00:45:00,30.4,25.0,30.26,NNW,339,0.0,0.0,80,0.00,,---,0.00,VWS V14.00,2013-02-23 05:45:00,
2013-02-23 00:50:00,30.4,24.7,30.25,NNW,339,0.0,0.0,79,0.00,,---,0.00,VWS V14.00,2013-02-23 05:50:00,
2013-02-23 00:55:00,30.4,24.7,30.25,NNW,339,0.0,0.0,79,0.00,,---,0.00,VWS V14.00,2013-02-23 05:55:00,
2013-02-23 01:00:00,30.6,25.2,30.25,NNW,339,0.0,0.0,80,0.00,,---,0.00,VWS V14.00,2013-02-23 06:00:00,
2013-02-23 01:05:00,30.6,25.5,30.24,NNW,339,0.0,0.0,81,0.00,,---,0.00,VWS V14.00,2013-02-23 06:05:00,
2013-02-23 01:10:00,30.6,25.2,30.24,NNW,339,0.0,0.0,80,0.00,,---,0.00,VWS V14.00,2013-02-23 06:10:00,
2013-02-23 01:15:00,30.6,25.2,30.24,NNW,339,0.0,0.0,80,0.00,,---,0.00,VWS V14.00,2013-02-23 06:15:00,
2013-02-23 01:20:00,30.6,25.2,30.24,NNW,339,0.0,0.0,80,0.00,,---,0.00,VWS V14.00,2013-02-23 06:20:00,
2013-02-23 01:25:00,30.6,25.2,30.24,NNW,339,0.0,0.0,80,0.00,,---,0.00,VWS V14.00,2013-02-23 06:25:00,
2013-02-23 01:30:00,30.6,25.2,30.24,NNW,339,0.0,0.0,80,0.00,,---,0.00,VWS V14.00,2013-02-23 06:30:00,
2013-02-23 01:36:00,30.6,26.1,30.24,NNW,339,0.0,0.0,83,0.00,,---,0.00,VWS V14.00,2013-02-23 06:36:00,
2013-02-23 01:41:00,30.6,26.1,30.24,NNW,339,0.0,0.0,83,0.00,,---,0.00,VWS V14.00,2013-02-23 06:41:00,
2013-02-23 01:46:00,30.6,26.4,30.24,NNW,339,0.0,0.0,84,0.00,,---,0.00,VWS V14.00,2013-02-23 06:46:00,
2013-02-23 01:51:00,30.4,26.1,30.24,NNW,339,0.0,0.0,84,0.00,,---,0.00,VWS V14.00,2013-02-23 06:51:00,
2013-02-23 01:56:00,30.4,26.1,30.24,NNW,339,0.0,0.0,84,0.00,,---,0.00,VWS V14.00,2013-02-23 06:56:00,
2013-02-23 02:01:00,30.3,26.1,30.24,NNW,339,0.0,0.0,84,0.00,,---,0.00,VWS V14.00,2013-02-23 07:01:00,
2013-02-23 02:06:00,30.3,26.1,30.24,NNW,339,0.0,0.0,84,0.00,,---,0.00,VWS V14.00,2013-02-23 07:06:00,
2013-02-23 02:11:00,30.3,26.1,30.24,NNW,339,0.0,0.0,84,0.00,,---,0.00,VWS V14.00,2013-02-23 07:11:00,
2013-02-23 02:16:00,30.3,26.1,30.24,NNW,339,0.0,0.0,84,0.00,,---,0.00,VWS V14.00,2013-02-23 07:16:00,
2013-02-23 02:21:00,30.3,26.1,30.24,NNW,339,0.0,0.0,84,0.00,,---,0.00,VWS V14.00,2013-02-23 07:21:00,
2013-02-23 02:26:00,30.3,26.1,30.24,NNW,339,0.0,0.0,84,0.00,,---,0.00,VWS V14.00,2013-02-23 07:26:00,
2013-02-23 02:31:00,30.3,26.1,30.23,NNW,339,0.0,0.0,84,0.00,,---,0.00,VWS V14.00,2013-02-23 07:31:00,
2013-02-23 02:36:00,30.3,26.1,30.23,NNW,339,0.0,0.0,84,0.00,,---,0.00,VWS V14.00,2013-02-23 07:36:00,
2013-02-23 02:41:00,30.3,25.8,30.23,NNW,339,0.0,0.0,83,0.00,,---,0.00,VWS V14.00,2013-02-23 07:41:00,
2013-02-23 02:46:00,30.4,26.1,30.22,NNW,339,0.0,0.0,84,0.00,,---,0.00,VWS V14.00,2013-02-23 07:46:00,
2013-02-23 02:51:00,30.4,26.1,30.22,NNW,339,0.0,0.0,84,0.00,,---,0.00,VWS V14.00,2013-02-23 07:51:00,
2013-02-23 02:56:00,30.4,26.1,30.22,NNW,339,0.0,0.0,84,0.00,,---,0.00,VWS V14.00,2013-02-23 07:56:00,
2013-02-23 03:01:00,30.4,26.1,30.22,NNW,339,0.0,0.0,84,0.00,,---,0.00,VWS V14.00,2013-02-23 08:01:00,
2013-02-23 03:06:00,30.4,25.9,30.22,NNW,339,0.0,0.0,83,0.00,,---,0.00,VWS V14.00,2013-02-23 08:06:00,
2013-02-23 03:11:00,30.4,25.9,30.22,NNW,339,0.0,0.0,83,0.00,,---,0.00,VWS V14.00,2013-02-23 08:11:00,
2013-02-23 03:16:00,30.6,26.4,30.22,NNW,339,0.0,0.0,84,0.00,,---,0.00,VWS V14.00,2013-02-23 08:16:00,
2013-02-23 03:21:00,30.4,26.1,30.22,NNW,339,0.0,0.0,84,0.00,,---,0.00,VWS V14.00,2013-02-23 08:21:00,
2013-02-23 03:26:00,30.4,26.1,30.22,NNW,339,0.0,0.0,84,0.00,,---,0.00,VWS V14.00,2013-02-23 08:26:00,
2013-02-23 03:31:00,30.4,26.4,30.21,NNW,339,0.0,0.0,85,0.00,,---,0.00,VWS V14.00,2013-02-23 08:31:00,
2013-02-23 03:36:00,30.4,26.1,30.21,NNW,339,0.0,0.0,84,0.00,,---,0.00,VWS V14.00,2013-02-23 08:36:00,
2013-02-23 03:41:00,30.4,26.1,30.21,NNW,339,0.0,0.0,84,0.00,,---,0.00,VWS V14.00,2013-02-23 08:41:00,
2013-02-23 03:47:00,30.4,25.9,30.20,NNW,339,0.0,0.0,83,0.00,,---,0.00,VWS V14.00,2013-02-23 08:47:00,
2013-02-23 03:52:00,30.4,25.9,30.20,NNW,339,0.0,0.0,83,0.00,,---,0.00,VWS V14.00,2013-02-23 08:52:00,
2013-02-23 03:57:00,30.4,25.9,30.20,NNW,339,0.0,0.0,83,0.00,,---,0.00,VWS V14.00,2013-02-23 08:57:00,
2013-02-23 04:02:00,30.6,26.6,30.20,NNW,339,0.0,0.0,85,0.00,,---,0.00,VWS V14.00,2013-02-23 09:02:00,
2013-02-23 04:07:00,30.6,26.4,30.20,NNW,339,0.0,0.0,84,0.00,,---,0.00,VWS V14.00,2013-02-23 09:07:00,
2013-02-23 04:12:00,30.6,26.1,30.20,NNW,339,0.0,0.0,83,0.00,,---,0.00,VWS V14.00,2013-02-23 09:12:00,
2013-02-23 04:17:00,30.4,25.9,30.20,NNW,339,0.0,0.0,83,0.00,,---,0.00,VWS V14.00,2013-02-23 09:17:00,
2013-02-23 04:22:00,30.6,26.1,30.20,NNW,339,0.0,0.0,83,0.00,,---,0.00,VWS V14.00,2013-02-23 09:22:00,
2013-02-23 04:27:00,30.6,26.1,30.20,NNW,339,0.0,0.0,83,0.00,,---,0.00,VWS V14.00,2013-02-23 09:27:00,
2013-02-23 04:32:00,30.6,26.1,30.20,NNW,339,0.0,0.0,83,0.00,,---,0.00,VWS V14.00,2013-02-23 09:32:00,
2013-02-23 04:37:00,30.7,26.5,30.20,NNW,339,0.0,0.0,84,0.00,,---,0.00,VWS V14.00,2013-02-23 09:37:00,
2013-02-23 04:42:00,30.7,26.2,30.20,NNW,339,0.0,0.0,83,0.00,,---,0.00,VWS V14.00,2013-02-23 09:42:00,
2013-02-23 04:47:00,30.7,26.2,30.19,NNW,339,0.0,0.0,83,0.00,,---,0.00,VWS V14.00,2013-02-23 09:47:00,
2013-02-23 04:52:00,30.9,26.1,30.19,NNW,339,0.0,0.0,82,0.00,,---,0.00,VWS V14.00,2013-02-23 09:52:00,
2013-02-23 04:57:00,31.0,25.9,30.19,NNW,339,0.0,0.0,81,0.00,,---,0.00,VWS V14.00,2013-02-23 09:57:00,
2013-02-23 05:02:00,31.0,25.9,30.19,NNW,339,0.0,0.0,81,0.00,,---,0.00,VWS V14.00,2013-02-23 10:02:00,
2013-02-23 05:07:00,31.2,26.1,30.19,NNW,339,0.0,0.0,81,0.00,,---,0.00,VWS V14.00,2013-02-23 10:07:00,
2013-02-23 05:12:00,31.3,26.2,30.19,NNW,339,0.0,0.0,81,0.00,,---,0.00,VWS V14.00,2013-02-23 10:12:00,
2013-02-23 05:17:00,31.3,25.9,30.20,NNW,339,0.0,0.0,80,0.00,,---,0.00,VWS V14.00,2013-02-23 10:17:00,
2013-02-23 05:22:00,31.3,26.2,30.20,NNW,339,0.0,0.0,81,0.00,,---,0.00,VWS V14.00,2013-02-23 10:22:00,
2013-02-23 05:27:00,31.5,26.4,30.20,NNW,339,0.0,0.0,81,0.00,,---,0.00,VWS V14.00,2013-02-23 10:27:00,
2013-02-23 05:32:00,31.5,26.4,30.19,NNW,339,0.0,0.0,81,0.00,,---,0.00,VWS V14.00,2013-02-23 10:32:00,
2013-02-23 05:37:00,31.6,26.5,30.19,NNW,339,0.0,0.0,81,0.00,,---,0.00,VWS V14.00,2013-02-23 10:37:00,
2013-02-23 05:42:00,31.6,26.5,30.19,NNW,339,0.0,0.0,81,0.00,,---,0.00,VWS V14.00,2013-02-23 10:42:00,
2013-02-23 05:47:00,31.6,26.5,30.19,NNW,339,0.0,0.0,81,0.00,,---,0.00,VWS V14.00,2013-02-23 10:47:00,
2013-02-23 05:52:00,31.6,26.5,30.19,NNW,339,0.0,0.0,81,0.00,,---,0.00,VWS V14.00,2013-02-23 10:52:00,
2013-02-23 05:57:00,31.6,26.5,30.19,NNW,339,0.0,0.0,81,0.00,,---,0.00,VWS V14.00,2013-02-23 10:57:00,
2013-02-23 06:02:00,31.6,26.5,30.18,NNW,339,0.0,0.0,81,0.00,,---,0.00,VWS V14.00,2013-02-23 11:02:00,
2013-02-23 06:07:00,31.6,26.8,30.18,NNW,339,0.0,1.0,82,0.00,,---,0.00,VWS V14.00,2013-02-23 11:07:00,
2013-02-23 06:12:00,31.8,26.9,30.18,NNW,339,0.0,1.0,82,0.00,,---,0.00,VWS V14.00,2013-02-23 11:12:00,
2013-02-23 06:17:00,31.8,26.9,30.18,NNW,339,0.0,1.0,82,0.00,,---,0.00,VWS V14.00,2013-02-23 11:17:00,
2013-02-23 06:22:00,31.8,27.2,30.18,NNW,339,0.0,1.0,83,0.00,,---,0.00,VWS V14.00,2013-02-23 11:22:00,
2013-02-23 06:27:00,31.8,27.2,30.18,NNW,339,0.0,1.0,83,0.00,,---,0.00,VWS V14.00,2013-02-23 11:27:00,
2013-02-23 06:32:00,31.8,27.2,30.17,NNW,339,0.0,0.0,83,0.00,,---,0.00,VWS V14.00,2013-02-23 11:32:00,
2013-02-23 06:37:00,31.8,27.2,30.17,NNW,339,0.0,0.0,83,0.00,,---,0.00,VWS V14.00,2013-02-23 11:37:00,
2013-02-23 06:42:00,31.8,27.2,30.17,NNW,339,0.0,0.0,83,0.00,,---,0.00,VWS V14.00,2013-02-23 11:42:00,
2013-02-23 06:48:00,31.8,27.2,30.17,NNW,339,0.0,0.0,83,0.00,,---,0.00,VWS V14.00,2013-02-23 11:48:00,
2013-02-23 06:53:00,31.8,27.2,30.17,NNW,339,0.0,0.0,83,0.00,,---,0.00,VWS V14.00,2013-02-23 11:53:00,
2013-02-23 06:58:00,31.9,27.3,30.17,NNW,339,0.0,0.0,83,0.00,,---,0.00,VWS V14.00,2013-02-23 11:58:00,
2013-02-23 07:03:00,31.9,27.3,30.18,NNW,339,0.0,0.0,83,0.00,,---,0.00,VWS V14.00,2013-02-23 12:03:00,
2013-02-23 07:08:00,32.1,27.5,30.18,NNW,337,0.0,0.0,83,0.00,,---,0.00,VWS V14.00,2013-02-23 12:08:00,
2013-02-23 07:13:00,32.1,27.5,30.18,NNW,336,0.0,0.0,83,0.00,,---,0.00,VWS V14.00,2013-02-23 12:13:00,
2013-02-23 07:18:00,32.1,27.5,30.18,NW,322,0.0,0.0,83,0.00,,---,0.00,VWS V14.00,2013-02-23 12:18:00,
2013-02-23 07:23:00,32.2,27.6,30.18,NW,318,0.0,0.0,83,0.00,,---,0.00,VWS V14.00,2013-02-23 12:23:00,
2013-02-23 07:28:00,32.2,27.6,30.18,NW,313,0.0,1.0,83,0.00,,---,0.00,VWS V14.00,2013-02-23 12:28:00,
2013-02-23 07:33:00,32.2,27.6,30.18,WNW,302,0.0,0.0,83,0.00,,---,0.00,VWS V14.00,2013-02-23 12:33:00,
2013-02-23 07:38:00,32.4,27.8,30.18,WSW,246,0.0,0.0,83,0.00,,---,0.00,VWS V14.00,2013-02-23 12:38:00,
2013-02-23 07:43:00,32.4,27.8,30.18,WSW,246,0.0,0.0,83,0.00,,---,0.00,VWS V14.00,2013-02-23 12:43:00,
2013-02-23 07:48:00,32.4,27.8,30.18,WSW,247,0.0,1.0,83,0.00,,---,0.00,VWS V14.00,2013-02-23 12:48:00,
2013-02-23 07:53:00,32.5,27.9,30.18,WSW,247,0.0,1.0,83,0.00,,---,0.00,VWS V14.00,2013-02-23 12:53:00,
2013-02-23 07:58:00,32.5,27.9,30.18,WSW,248,0.0,1.0,83,0.00,,---,0.00,VWS V14.00,2013-02-23 12:58:00,
2013-02-23 08:03:00,32.7,28.1,30.18,WSW,248,0.0,0.0,83,0.00,,---,0.00,VWS V14.00,2013-02-23 13:03:00,
2013-02-23 08:08:00,32.7,28.1,30.18,WSW,250,0.0,0.0,83,0.00,,---,0.00,VWS V14.00,2013-02-23 13:08:00,
2013-02-23 08:13:00,32.8,28.2,30.18,WSW,247,0.0,0.0,83,0.00,,---,0.00,VWS V14.00,2013-02-23 13:13:00,
2013-02-23 08:18:00,32.9,28.3,30.18,WSW,247,0.0,1.0,83,0.00,,---,0.00,VWS V14.00,2013-02-23 13:18:00,
2013-02-23 08:23:00,32.9,28.3,30.18,WSW,246,0.0,1.0,83,0.00,,---,0.00,VWS V14.00,2013-02-23 13:23:00,
2013-02-23 08:28:00,33.1,28.5,30.18,WSW,247,0.0,1.0,83,0.00,,---,0.00,VWS V14.00,2013-02-23 13:28:00,
2013-02-23 08:33:00,33.2,28.6,30.17,WSW,246,0.0,0.0,83,0.00,,---,0.00,VWS V14.00,2013-02-23 13:33:00,
2013-02-23 08:38:00,33.2,28.3,30.17,WSW,247,0.0,1.0,82,0.00,,---,0.00,VWS V14.00,2013-02-23 13:38:00,
2013-02-23 08:43:00,33.4,28.5,30.17,WSW,244,0.0,1.0,82,0.00,,---,0.00,VWS V14.00,2013-02-23 13:43:00,
2013-02-23 08:48:00,33.5,28.6,30.17,South,172,0.0,1.0,82,0.00,,---,0.00,VWS V14.00,2013-02-23 13:48:00,
2013-02-23 08:53:00,33.5,28.6,30.17,South,172,0.0,1.0,82,0.00,,---,0.00,VWS V14.00,2013-02-23 13:53:00,
2013-02-23 08:58:00,33.7,28.8,30.17,South,172,0.0,1.0,82,0.00,,---,0.00,VWS V14.00,2013-02-23 13:58:00,
2013-02-23 09:03:00,33.8,28.9,30.17,South,172,0.0,0.0,82,0.00,,---,0.00,VWS V14.00,2013-02-23 14:03:00,
2013-02-23 09:08:00,34.0,28.8,30.17,South,174,0.0,1.0,81,0.00,,---,0.00,VWS V14.00,2013-02-23 14:08:00,
2013-02-23 09:13:00,34.1,28.9,30.17,South,172,0.0,1.0,81,0.00,,---,0.00,VWS V14.00,2013-02-23 14:13:00,
2013-02-23 09:18:00,34.1,28.9,30.15,South,174,0.0,1.0,81,0.00,,---,0.00,VWS V14.00,2013-02-23 14:18:00,
2013-02-23 09:23:00,34.3,28.8,30.15,South,171,0.0,1.0,80,0.00,,---,0.00,VWS V14.00,2013-02-23 14:23:00,
2013-02-23 09:28:00,34.4,28.9,30.15,SSE,164,0.0,1.0,80,0.00,,---,0.00,VWS V14.00,2013-02-23 14:28:00,
2013-02-23 09:33:00,34.4,28.9,30.15,SE,141,0.0,0.0,80,0.00,,---,0.00,VWS V14.00,2013-02-23 14:33:00,
2013-02-23 09:38:00,34.6,29.1,30.15,SE,140,0.0,0.0,80,0.00,,---,0.00,VWS V14.00,2013-02-23 14:38:00,
2013-02-23 09:43:00,34.9,29.1,30.15,SE,140,0.0,0.0,79,0.00,,---,0.00,VWS V14.00,2013-02-23 14:43:00,
2013-02-23 09:48:00,35.0,29.2,30.15,SE,138,0.0,0.0,79,0.00,,---,0.00,VWS V14.00,2013-02-23 14:48:00,
2013-02-23 09:53:00,35.2,29.0,30.15,ESE,114,0.0,2.0,78,0.00,,---,0.00,VWS V14.00,2013-02-23 14:53:00,
2013-02-23 09:58:00,35.3,29.1,30.15,SSE,148,1.0,3.0,78,0.00,,---,0.00,VWS V14.00,2013-02-23 14:58:00,
2013-02-23 10:03:00,35.3,28.8,30.15,SSW,202,2.0,2.0,77,0.00,,---,0.00,VWS V14.00,2013-02-23 15:03:00,
2013-02-23 10:08:00,35.5,29.0,30.15,SE,141,0.0,2.0,77,0.00,,---,0.00,VWS V14.00,2013-02-23 15:08:00,
2013-02-23 10:13:00,35.5,29.0,30.15,ESE,104,0.0,3.0,77,0.00,,---,0.00,VWS V14.00,2013-02-23 15:13:00,
2013-02-23 10:18:00,35.6,29.1,30.15,ESE,107,0.0,3.0,77,0.00,,---,0.00,VWS V14.00,2013-02-23 15:18:00,
2013-02-23 10:23:00,35.8,29.3,30.15,ESE,106,0.0,3.0,77,0.00,,---,0.00,VWS V14.00,2013-02-23 15:23:00,
2013-02-23 10:28:00,35.8,29.0,30.15,ESE,106,0.0,3.0,76,0.00,,---,0.00,VWS V14.00,2013-02-23 15:28:00,
2013-02-23 10:33:00,35.9,29.1,30.14,ESE,106,0.0,1.0,76,0.00,,---,0.00,VWS V14.00,2013-02-23 15:33:00,
2013-02-23 10:38:00,36.0,29.2,30.14,ESE,106,0.0,1.0,76,0.00,,---,0.00,VWS V14.00,2013-02-23 15:38:00,
2013-02-23 10:43:00,36.0,29.2,30.14,ESE,106,0.0,3.0,76,0.00,,---,0.00,VWS V14.00,2013-02-23 15:43:00,
2013-02-23 10:48:00,36.2,29.0,30.13,ESE,106,0.0,3.0,75,0.00,,---,0.00,VWS V14.00,2013-02-23 15:48:00,
2013-02-23 10:53:00,36.2,29.0,30.13,ESE,106,0.0,3.0,75,0.00,,---,0.00,VWS V14.00,2013-02-23 15:53:00,
2013-02-23 10:58:00,36.5,29.3,30.13,ESE,104,0.0,3.0,75,0.00,,---,0.00,VWS V14.00,2013-02-23 15:58:00,
2013-02-23 11:03:00,36.6,29.4,30.12,ESE,104,0.0,0.0,75,0.00,,---,0.00,VWS V14.00,2013-02-23 16:03:00,
2013-02-23 11:08:00,36.9,29.7,30.12,ESE,103,0.0,0.0,75,0.00,,---,0.00,VWS V14.00,2013-02-23 16:08:00,
2013-02-23 11:13:00,36.9,29.4,30.12,ESE,104,0.0,1.0,74,0.00,,---,0.00,VWS V14.00,2013-02-23 16:13:00,
2013-02-23 11:18:00,36.9,29.4,30.11,ESE,119,0.0,2.0,74,0.00,,---,0.00,VWS V14.00,2013-02-23 16:18:00,
2013-02-23 11:23:00,37.0,29.5,30.11,South,169,0.0,2.0,74,0.00,,---,0.00,VWS V14.00,2013-02-23 16:23:00,
2013-02-23 11:28:00,37.2,30.0,30.11,SSE,167,0.0,2.0,75,0.00,,---,0.00,VWS V14.00,2013-02-23 16:28:00,
2013-02-23 11:33:00,37.3,29.5,30.10,ESE,119,0.0,1.0,73,0.00,,---,0.00,VWS V14.00,2013-02-23 16:33:00,
2013-02-23 11:38:00,37.3,29.8,30.10,ESE,119,0.0,1.0,74,0.00,,---,0.00,VWS V14.00,2013-02-23 16:38:00,
2013-02-23 11:43:00,37.6,29.7,30.10,ESE,116,0.0,1.0,73,0.00,,---,0.00,VWS V14.00,2013-02-23 16:43:00,
2013-02-23 11:48:00,37.5,29.6,30.10,East,90,0.0,3.0,73,0.00,,---,0.00,VWS V14.00,2013-02-23 16:48:00,
2013-02-23 11:53:00,37.6,29.7,30.10,SE,133,0.0,3.0,73,0.00,,---,0.00,VWS V14.00,2013-02-23 16:53:00,
2013-02-23 11:58:00,37.8,29.9,30.10,SSE,155,1.0,3.0,73,0.00,,---,0.00,VWS V14.00,2013-02-23 16:58:00,
2013-02-23 12:03:00,37.6,29.4,30.10,SE,137,0.0,2.0,72,0.00,,---,0.00,VWS V14.00,2013-02-23 17:03:00,
2013-02-23 12:08:00,37.6,29.4,30.10,SE,137,0.0,2.0,72,0.00,,---,0.00,VWS V14.00,2013-02-23 17:08:00,
2013-02-23 12:13:00,37.9,29.7,30.10,SE,136,0.0,2.0,72,0.00,,---,0.00,VWS V14.00,2013-02-23 17:13:00,
2013-02-23 12:19:00,37.9,29.7,30.08,ESE,116,0.0,2.0,72,0.00,,---,0.00,VWS V14.00,2013-02-23 17:19:00,
2013-02-23 12:23:00,37.8,29.3,30.08,ESE,110,0.0,2.0,71,0.00,,---,0.00,VWS V14.00,2013-02-23 17:23:00,
2013-02-23 12:28:00,37.9,29.4,30.08,ESE,103,1.0,2.0,71,0.00,,---,0.00,VWS V14.00,2013-02-23 17:28:00,
2013-02-23 12:34:00,38.0,29.5,30.07,SE,127,0.0,0.0,71,0.00,,---,0.00,VWS V14.00,2013-02-23 17:34:00,
2013-02-23 12:39:00,38.3,29.7,30.07,SE,127,0.0,0.0,71,0.00,,---,0.00,VWS V14.00,2013-02-23 17:39:00,
2013-02-23 12:44:00,38.3,29.4,30.07,ENE,75,0.0,2.0,70,0.00,,---,0.00,VWS V14.00,2013-02-23 17:44:00,
2013-02-23 12:49:00,38.2,29.3,30.07,East,89,0.0,2.0,70,0.00,,---,0.00,VWS V14.00,2013-02-23 17:49:00,
2013-02-23 12:53:00,38.0,29.5,30.07,East,92,0.0,2.0,71,0.00,,---,0.00,VWS V14.00,2013-02-23 17:53:00,
2013-02-23 12:59:00,38.0,29.5,30.07,East,99,2.0,2.0,71,0.00,,---,0.00,VWS V14.00,2013-02-23 17:59:00,
2013-02-23 13:04:00,37.9,29.4,30.06,SE,144,0.0,3.0,71,0.00,,---,0.00,VWS V14.00,2013-02-23 18:04:00,
2013-02-23 13:09:00,38.0,29.1,30.06,SE,137,0.0,3.0,70,0.00,,---,0.00,VWS V14.00,2013-02-23 18:09:00,
2013-02-23 13:14:00,38.2,29.6,30.06,SSE,148,0.0,3.0,71,0.00,,---,0.00,VWS V14.00,2013-02-23 18:14:00,
2013-02-23 13:19:00,38.3,29.4,30.06,ESE,109,0.0,3.0,70,0.00,,---,0.00,VWS V14.00,2013-02-23 18:19:00,
2013-02-23 13:24:00,38.3,29.4,30.06,ESE,107,1.0,3.0,70,0.00,,---,0.00,VWS V14.00,2013-02-23 18:24:00,
2013-02-23 13:29:00,38.3,29.4,30.06,SE,133,1.0,3.0,70,0.00,,---,0.00,VWS V14.00,2013-02-23 18:29:00,
2013-02-23 13:34:00,38.3,29.4,30.06,SSE,155,0.0,1.0,70,0.00,,---,0.00,VWS V14.00,2013-02-23 18:34:00,
2013-02-23 13:39:00,38.5,29.9,30.06,SSE,148,1.0,1.0,71,0.00,,---,0.00,VWS V14.00,2013-02-23 18:39:00,
2013-02-23 13:44:00,38.5,29.9,30.06,SE,140,0.0,3.0,71,0.00,,---,0.00,VWS V14.00,2013-02-23 18:44:00,
2013-02-23 13:49:00,38.3,29.7,30.06,ESE,120,0.0,3.0,71,0.00,,---,0.00,VWS V14.00,2013-02-23 18:49:00,
2013-02-23 13:54:00,38.2,30.0,30.06,ESE,106,0.0,3.0,72,0.00,,---,0.00,VWS V14.00,2013-02-23 18:54:00,
2013-02-23 13:59:00,38.0,29.8,30.06,ESE,104,0.0,4.0,72,0.00,,---,0.00,VWS V14.00,2013-02-23 18:59:00,
2013-02-23 14:04:00,37.9,29.7,30.05,SE,136,0.0,2.0,72,0.00,,---,0.00,VWS V14.00,2013-02-23 19:04:00,
2013-02-23 14:09:00,38.0,30.1,30.05,SSE,150,0.0,2.0,73,0.00,,---,0.00,VWS V14.00,2013-02-23 19:09:00,
2013-02-23 14:14:00,38.2,30.3,30.05,SSE,150,0.0,2.0,73,0.00,,---,0.00,VWS V14.00,2013-02-23 19:14:00,
2013-02-23 14:19:00,38.2,30.3,30.05,SSE,148,0.0,2.0,73,0.00,,---,0.00,VWS V14.00,2013-02-23 19:19:00,
2013-02-23 14:24:00,38.2,30.0,30.05,SE,133,0.0,2.0,72,0.00,,---,0.00,VWS V14.00,2013-02-23 19:24:00,
2013-02-23 14:29:00,38.2,30.0,30.05,SE,131,0.0,2.0,72,0.00,,---,0.00,VWS V14.00,2013-02-23 19:29:00,
2013-02-23 14:34:00,38.2,30.0,30.04,SE,131,0.0,1.0,72,0.00,,---,0.00,VWS V14.00,2013-02-23 19:34:00,
2013-02-23 14:39:00,38.2,30.0,30.04,SE,143,0.0,2.0,72,0.00,,---,0.00,VWS V14.00,2013-02-23 19:39:00,
2013-02-23 14:44:00,38.2,30.0,30.04,SE,143,0.0,2.0,72,0.00,,---,0.00,VWS V14.00,2013-02-23 19:44:00,
2013-02-23 14:49:00,38.2,30.0,30.05,ESE,103,0.0,2.0,72,0.00,,---,0.00,VWS V14.00,2013-02-23 19:49:00,
2013-02-23 14:54:00,38.2,30.0,30.05,ESE,104,0.0,2.0,72,0.00,,---,0.00,VWS V14.00,2013-02-23 19:54:00,
2013-02-23 14:59:00,38.0,29.8,30.05,ESE,104,0.0,2.0,72,0.00,,---,0.00,VWS V14.00,2013-02-23 19:59:00,
2013-02-23 15:04:00,38.0,29.8,30.05,SE,137,0.0,0.0,72,0.00,,---,0.00,VWS V14.00,2013-02-23 20:04:00,
2013-02-23 15:09:00,38.2,30.3,30.05,SE,136,0.0,1.0,73,0.00,,---,0.00,VWS V14.00,2013-02-23 20:09:00,
2013-02-23 15:14:00,38.2,30.3,30.05,SE,137,0.0,1.0,73,0.00,,---,0.00,VWS V14.00,2013-02-23 20:14:00,
2013-02-23 15:19:00,38.2,30.3,30.04,SE,137,0.0,1.0,73,0.00,,---,0.00,VWS V14.00,2013-02-23 20:19:00,
2013-02-23 15:24:00,38.3,30.4,30.04,SE,137,0.0,1.0,73,0.00,,---,0.00,VWS V14.00,2013-02-23 20:24:00,
2013-02-23 15:29:00,38.2,30.3,30.04,SE,137,0.0,1.0,73,0.00,,---,0.00,VWS V14.00,2013-02-23 20:29:00,
2013-02-23 15:34:00,38.0,30.1,30.03,SE,136,1.0,1.0,73,0.00,,---,0.00,VWS V14.00,2013-02-23 20:34:00,
2013-02-23 15:39:00,38.0,30.1,30.03,SE,131,0.0,1.0,73,0.00,,---,0.00,VWS V14.00,2013-02-23 20:39:00,
2013-02-23 15:44:00,37.9,30.0,30.03,SE,131,0.0,1.0,73,0.00,,---,0.00,VWS V14.00,2013-02-23 20:44:00,
2013-02-23 15:49:00,37.9,30.7,30.02,SE,134,0.0,1.0,75,0.00,,---,0.00,VWS V14.00,2013-02-23 20:49:00,
2013-02-23 15:54:00,37.6,30.4,30.02,SE,141,0.0,3.0,75,0.00,,---,0.00,VWS V14.00,2013-02-23 20:54:00,
2013-02-23 15:59:00,37.5,30.6,30.02,East,97,0.0,3.0,76,0.00,,---,0.00,VWS V14.00,2013-02-23 20:59:00,
2013-02-23 16:04:00,37.3,30.4,30.02,East,97,0.0,0.0,76,0.00,,---,0.00,VWS V14.00,2013-02-23 21:04:00,
2013-02-23 16:09:00,37.3,30.8,30.02,East,99,0.0,1.0,77,0.00,,---,0.00,VWS V14.00,2013-02-23 21:09:00,
2013-02-23 16:14:00,37.2,30.7,30.02,SSE,150,1.0,5.0,77,0.00,,---,0.00,VWS V14.00,2013-02-23 21:14:00,
2013-02-23 16:19:00,37.0,30.8,30.01,SE,126,0.0,5.0,78,0.00,,---,0.00,VWS V14.00,2013-02-23 21:19:00,
2013-02-23 16:24:00,36.9,31.0,30.01,SE,126,0.0,5.0,79,0.00,,---,0.00,VWS V14.00,2013-02-23 21:24:00,
2013-02-23 16:29:00,36.8,31.2,30.01,SSE,150,0.0,5.0,80,0.00,,---,0.00,VWS V14.00,2013-02-23 21:29:00,
2013-02-23 16:34:00,36.5,31.2,30.01,SSE,148,0.0,0.0,81,0.00,,---,0.00,VWS V14.00,2013-02-23 21:34:00,
2013-02-23 16:39:00,36.2,31.2,30.01,SSE,150,0.0,1.0,82,0.00,,---,0.00,VWS V14.00,2013-02-23 21:39:00,
2013-02-23 16:44:00,35.9,31.2,30.01,SE,133,0.0,2.0,83,0.00,,---,0.00,VWS V14.00,2013-02-23 21:44:00,
2013-02-23 16:49:00,35.6,31.5,30.00,SE,133,0.0,2.0,85,0.00,,---,0.00,VWS V14.00,2013-02-23 21:49:00,
2013-02-23 16:54:00,35.3,31.5,30.00,SE,133,0.0,2.0,86,0.00,,---,0.00,VWS V14.00,2013-02-23 21:54:00,
2013-02-23 16:59:00,35.2,31.7,30.00,SE,134,0.0,2.0,87,0.00,,---,0.00,VWS V14.00,2013-02-23 21:59:00,
2013-02-23 17:04:00,34.9,31.7,30.01,SE,137,0.0,0.0,88,0.00,,---,0.00,VWS V14.00,2013-02-23 22:04:00,
2013-02-23 17:09:00,34.6,31.7,30.01,SE,137,0.0,0.0,89,0.00,,---,0.00,VWS V14.00,2013-02-23 22:09:00,
2013-02-23 17:15:00,34.3,31.7,30.01,SE,138,0.0,0.0,90,0.00,,---,0.00,VWS V14.00,2013-02-23 22:15:00,
2013-02-23 17:20:00,34.1,31.5,30.01,SE,138,0.0,0.0,90,0.00,,---,0.00,VWS V14.00,2013-02-23 22:20:00,
2013-02-23 17:25:00,33.8,31.5,30.01,SE,137,0.0,0.0,91,0.00,,---,0.00,VWS V14.00,2013-02-23 22:25:00,
2013-02-23 17:30:00,33.7,31.6,30.01,SE,138,0.0,0.0,92,0.00,,---,0.00,VWS V14.00,2013-02-23 22:30:00,
2013-02-23 17:35:00,33.5,31.4,30.00,SE,138,0.0,0.0,92,0.00,,---,0.00,VWS V14.00,2013-02-23 22:35:00,
2013-02-23 17:40:00,33.4,31.6,30.00,SE,138,0.0,0.0,93,0.00,,---,0.00,VWS V14.00,2013-02-23 22:40:00,
2013-02-23 17:45:00,33.2,31.4,30.00,SE,138,0.0,0.0,93,0.00,,---,0.00,VWS V14.00,2013-02-23 22:45:00,
2013-02-23 17:50:00,33.1,31.3,29.98,SE,137,0.0,0.0,93,0.00,,---,0.00,VWS V14.00,2013-02-23 22:50:00,
2013-02-23 17:55:00,33.1,31.6,29.98,SE,137,0.0,0.0,94,0.00,,---,0.00,VWS V14.00,2013-02-23 22:55:00,
2013-02-23 18:00:00,32.9,31.4,29.98,SE,137,0.0,0.0,94,0.00,,---,0.00,VWS V14.00,2013-02-23 23:00:00,
2013-02-23 18:05:00,32.9,31.4,29.98,SE,137,0.0,0.0,94,0.00,,---,0.00,VWS V14.00,2013-02-23 23:05:00,
2013-02-23 18:10:00,32.8,31.5,29.98,SE,137,0.0,0.0,95,0.00,,---,0.00,VWS V14.00,2013-02-23 23:10:00,
2013-02-23 18:15:00,32.8,31.5,29.98,SE,137,0.0,0.0,95,0.00,,---,0.00,VWS V14.00,2013-02-23 23:15:00,
2013-02-23 18:20:00,32.8,31.5,29.98,SE,137,0.0,0.0,95,0.00,,---,0.00,VWS V14.00,2013-02-23 23:20:00,
2013-02-23 18:25:00,32.8,31.5,29.98,SE,137,0.0,0.0,95,0.00,,---,0.00,VWS V14.00,2013-02-23 23:25:00,
2013-02-23 18:30:00,32.8,31.8,29.98,SE,137,0.0,0.0,96,0.00,,---,0.00,VWS V14.00,2013-02-23 23:30:00,
2013-02-23 18:35:00,32.8,31.8,29.98,SE,137,0.0,0.0,96,0.00,,---,0.00,VWS V14.00,2013-02-23 23:35:00,
2013-02-23 18:40:00,32.7,31.7,29.98,SE,137,0.0,0.0,96,0.00,,---,0.00,VWS V14.00,2013-02-23 23:40:00,
2013-02-23 18:45:00,32.8,31.8,29.98,SE,137,0.0,0.0,96,0.00,,---,0.00,VWS V14.00,2013-02-23 23:45:00,
2013-02-23 18:50:00,32.7,31.7,29.98,SE,137,0.0,0.0,96,0.00,,---,0.00,VWS V14.00,2013-02-23 23:50:00,
2013-02-23 18:55:00,32.7,31.7,29.98,SE,137,0.0,0.0,96,0.00,,---,0.00,VWS V14.00,2013-02-23 23:55:00,
2013-02-23 19:00:00,32.7,31.7,29.98,SE,136,0.0,0.0,96,0.00,,---,0.00,VWS V14.00,2013-02-24 00:00:00,
2013-02-23 19:05:00,32.7,31.7,29.97,SE,136,0.0,0.0,96,0.00,,---,0.00,VWS V14.00,2013-02-24 00:05:00,
2013-02-23 19:10:00,32.7,31.7,29.97,SE,136,0.0,0.0,96,0.00,,---,0.00,VWS V14.00,2013-02-24 00:10:00,
2013-02-23 19:15:00,32.7,31.9,29.97,SE,136,0.0,0.0,97,0.00,,---,0.00,VWS V14.00,2013-02-24 00:15:00,
2013-02-23 19:20:00,32.7,31.9,29.97,SE,136,0.0,0.0,97,0.00,,---,0.00,VWS V14.00,2013-02-24 00:20:00,
2013-02-23 19:25:00,32.7,31.9,29.97,SE,136,0.0,0.0,97,0.00,,---,0.00,VWS V14.00,2013-02-24 00:25:00,
2013-02-23 19:30:00,32.7,31.9,29.97,SE,136,0.0,0.0,97,0.00,,---,0.00,VWS V14.00,2013-02-24 00:30:00,
2013-02-23 19:35:00,32.7,31.9,29.96,SE,136,0.0,0.0,97,0.00,,---,0.00,VWS V14.00,2013-02-24 00:35:00,
2013-02-23 19:40:00,32.5,31.7,29.96,SE,136,0.0,0.0,97,0.00,,---,0.00,VWS V14.00,2013-02-24 00:40:00,
2013-02-23 19:45:00,32.5,31.7,29.96,SE,136,0.0,0.0,97,0.00,,---,0.00,VWS V14.00,2013-02-24 00:45:00,
2013-02-23 19:50:00,32.5,31.7,29.95,SE,136,0.0,0.0,97,0.00,,---,0.00,VWS V14.00,2013-02-24 00:50:00,
2013-02-23 19:55:00,32.5,31.7,29.95,SE,136,0.0,0.0,97,0.00,,---,0.00,VWS V14.00,2013-02-24 00:55:00,
2013-02-23 20:00:00,32.5,31.7,29.95,SE,136,0.0,0.0,97,0.00,,---,0.00,VWS V14.00,2013-02-24 01:00:00,
2013-02-23 20:05:00,32.7,31.9,29.95,SE,136,0.0,0.0,97,0.00,,---,0.00,VWS V14.00,2013-02-24 01:05:00,
2013-02-23 20:10:00,32.7,31.9,29.95,SE,136,0.0,0.0,97,0.00,,---,0.00,VWS V14.00,2013-02-24 01:10:00,
2013-02-23 20:15:00,32.5,31.7,29.95,SE,136,0.0,1.0,97,0.00,,---,0.00,VWS V14.00,2013-02-24 01:15:00,
2013-02-23 20:20:00,32.7,31.9,29.94,SE,136,0.0,1.0,97,0.00,,---,0.00,VWS V14.00,2013-02-24 01:20:00,
2013-02-23 20:25:00,32.7,32.2,29.94,SE,136,0.0,1.0,98,0.00,,---,0.00,VWS V14.00,2013-02-24 01:25:00,
2013-02-23 20:30:00,32.5,32.0,29.94,SE,136,0.0,1.0,98,0.00,,---,0.00,VWS V14.00,2013-02-24 01:30:00,
2013-02-23 20:35:00,32.5,32.0,29.94,SE,136,0.0,0.0,98,0.00,,---,0.00,VWS V14.00,2013-02-24 01:35:00,
2013-02-23 20:40:00,32.5,32.0,29.94,SE,136,0.0,0.0,98,0.00,,---,0.00,VWS V14.00,2013-02-24 01:40:00,
2013-02-23 20:45:00,32.5,32.0,29.94,SE,136,0.0,0.0,98,0.00,,---,0.00,VWS V14.00,2013-02-24 01:45:00,
2013-02-23 20:50:00,32.5,32.0,29.94,SE,136,0.0,0.0,98,0.00,,---,0.00,VWS V14.00,2013-02-24 01:50:00,
2013-02-23 20:55:00,32.5,32.0,29.94,SE,136,0.0,0.0,98,0.00,,---,0.00,VWS V14.00,2013-02-24 01:55:00,
2013-02-23 21:00:00,32.5,32.0,29.94,SE,136,0.0,0.0,98,0.00,,---,0.00,VWS V14.00,2013-02-24 02:00:00,
2013-02-23 21:05:00,32.4,31.9,29.93,SE,136,0.0,0.0,98,0.00,,---,0.00,VWS V14.00,2013-02-24 02:05:00,
2013-02-23 21:10:00,32.4,31.9,29.93,SE,136,0.0,0.0,98,0.00,,---,0.00,VWS V14.00,2013-02-24 02:10:00,
2013-02-23 21:15:00,32.4,31.9,29.93,SE,136,0.0,0.0,98,0.01,,---,0.01,VWS V14.00,2013-02-24 02:15:00,
2013-02-23 21:20:00,32.4,31.9,29.91,SE,136,0.0,0.0,98,0.02,,---,0.02,VWS V14.00,2013-02-24 02:20:00,
2013-02-23 21:25:00,32.4,31.9,29.91,SE,136,0.0,0.0,98,0.03,,---,0.03,VWS V14.00,2013-02-24 02:25:00,
2013-02-23 21:30:00,32.5,32.0,29.91,SE,136,0.0,0.0,98,0.04,,---,0.04,VWS V14.00,2013-02-24 02:30:00,
2013-02-23 21:35:00,32.5,32.0,29.91,SE,136,0.0,1.0,98,0.05,,---,0.05,VWS V14.00,2013-02-24 02:35:00,
2013-02-23 21:40:00,32.5,32.0,29.91,SE,136,0.0,1.0,98,0.06,,---,0.06,VWS V14.00,2013-02-24 02:40:00,
2013-02-23 21:45:00,32.5,32.0,29.91,SE,136,0.0,1.0,98,0.06,,---,0.06,VWS V14.00,2013-02-24 02:45:00,
2013-02-23 21:50:00,32.5,32.0,29.90,SE,136,0.0,1.0,98,0.07,,---,0.07,VWS V14.00,2013-02-24 02:50:00,
2013-02-23 21:55:00,32.5,32.0,29.90,SE,136,0.0,1.0,98,0.07,,---,0.07,VWS V14.00,2013-02-24 02:55:00,
2013-02-23 22:00:00,32.5,32.0,29.90,SE,134,0.0,1.0,98,0.09,,---,0.09,VWS V14.00,2013-02-24 03:00:00,
2013-02-23 22:05:00,32.5,32.0,29.88,SE,134,0.0,0.0,98,0.10,,---,0.10,VWS V14.00,2013-02-24 03:05:00,
2013-02-23 22:10:00,32.5,32.0,29.88,SE,136,0.0,0.0,98,0.11,,---,0.11,VWS V14.00,2013-02-24 03:10:00,
2013-02-23 22:15:00,32.5,32.0,29.88,SE,134,0.0,0.0,98,0.11,,---,0.11,VWS V14.00,2013-02-24 03:15:00,
2013-02-23 22:20:00,32.5,32.0,29.87,SE,136,0.0,0.0,98,0.11,,---,0.11,VWS V14.00,2013-02-24 03:20:00,
2013-02-23 22:25:00,32.5,32.0,29.87,SE,136,0.0,0.0,98,0.11,,---,0.11,VWS V14.00,2013-02-24 03:25:00,
2013-02-23 22:30:00,32.5,32.0,29.87,SE,136,0.0,0.0,98,0.12,,---,0.12,VWS V14.00,2013-02-24 03:30:00,
2013-02-23 22:35:00,32.5,32.0,29.86,SE,134,0.0,0.0,98,0.08,,---,0.12,VWS V14.00,2013-02-24 03:35:00,
2013-02-23 22:40:00,32.8,32.5,29.86,West,261,0.0,1.0,99,0.08,,---,0.12,VWS V14.00,2013-02-24 03:40:00,
2013-02-23 22:46:00,32.7,32.5,29.86,West,261,0.0,1.0,99,0.09,,---,0.13,VWS V14.00,2013-02-24 03:46:00,
2013-02-23 22:51:00,32.7,32.5,29.85,West,261,0.0,1.0,99,0.09,,---,0.13,VWS V14.00,2013-02-24 03:51:00,
2013-02-23 22:56:00,32.8,32.5,29.85,West,261,0.0,1.0,99,0.09,,---,0.13,VWS V14.00,2013-02-24 03:56:00,
2013-02-23 23:01:00,32.8,32.5,29.85,West,261,0.0,1.0,99,0.09,,---,0.13,VWS V14.00,2013-02-24 04:01:00,
2013-02-23 23:06:00,32.7,32.5,29.84,West,261,0.0,0.0,99,0.04,,---,0.13,VWS V14.00,2013-02-24 04:06:00,
2013-02-23 23:11:00,32.7,32.5,29.84,West,261,0.0,0.0,99,0.05,,---,0.14,VWS V14.00,2013-02-24 04:11:00,
2013-02-23 23:16:00,32.5,32.2,29.84,West,260,0.0,1.0,99,0.05,,---,0.14,VWS V14.00,2013-02-24 04:16:00,
2013-02-23 23:21:00,32.5,32.2,29.84,West,260,0.0,1.0,99,0.06,,---,0.15,VWS V14.00,2013-02-24 04:21:00,
2013-02-23 23:26:00,32.5,32.2,29.84,West,260,0.0,1.0,99,0.06,,---,0.15,VWS V14.00,2013-02-24 04:26:00,
2013-02-23 23:31:00,32.5,32.2,29.83,West,261,0.0,1.0,99,0.07,,---,0.16,VWS V14.00,2013-02-24 04:31:00,
2013-02-23 23:36:00,32.7,32.5,29.83,West,261,0.0,0.0,99,0.04,,---,0.16,VWS V14.00,2013-02-24 04:36:00,
2013-02-23 23:41:00,32.7,32.5,29.83,West,261,0.0,0.0,99,0.05,,---,0.17,VWS V14.00,2013-02-24 04:41:00,
2013-02-23 23:46:00,32.7,32.5,29.83,West,261,0.0,0.0,99,0.05,,---,0.17,VWS V14.00,2013-02-24 04:46:00,
2013-02-23 23:51:00,32.7,32.5,29.83,West,261,0.0,0.0,99,0.05,,---,0.17,VWS V14.00,2013-02-24 04:51:00,
2013-02-23 23:56:00,32.7,32.5,29.83,West,261,0.0,1.0,99,0.06,,---,0.18,VWS V14.00,2013-02-24 04:56:00,